FW1757 Weather Reports


time (UTC)temp
F
wind
direction
speed
knots
gust
knots
rain 1hr
in
rain 24hr
in
rain mn
in
humidity
%
barometer
mb
20260831051544 65 252 0.0 0.0 0.00 0.00 0.00 60 1013.8
20260831051040 65 252 0.0 0.0 0.00 0.00 0.00 60 1013.8
20260831050541 65 252 0.0 0.0 0.00 0.00 0.00 59 1013.8
20260831050041 66 252 0.0 0.0 0.00 0.00 0.00 59 1013.8
20260831045541 66 252 0.0 0.0 0.00 0.00 0.00 59 1013.8
20260831045040 66 266 0.0 0.0 0.00 0.00 0.00 58 1013.9
20260831044550 66 266 0.0 0.0 0.00 0.00 0.00 58 1014.0
20260831044039 66 268 0.0 0.0 0.00 0.00 0.00 58 1013.9
20260831043541 67 281 0.0 0.0 0.00 0.00 0.00 58 1013.7
20260831043039 67 295 0.0 0.0 0.00 0.00 0.00 57 1013.8
20260831042542 67 269 0.0 0.0 0.00 0.00 0.00 56 1014.0
20260831042039 67 269 0.0 0.0 0.00 0.00 0.00 55 1013.9
20260831041548 67 268 0.0 0.0 0.00 0.00 0.00 54 1013.9
20260831041043 67 267 0.0 0.0 0.00 0.00 0.00 54 1013.9
20260831040539 67 266 0.0 0.0 0.00 0.00 0.00 53 1013.8
20260831040039 68 238 0.0 0.0 0.00 0.00 0.00 53 1013.9
20260831035541 68 220 0.0 0.0 0.00 0.00 0.00 52 1013.9
20260831035037 68 194 0.0 0.0 0.00 0.00 0.00 52 1013.9
20260831034537 68 248 0.0 0.0 0.00 0.00 0.00 51 1013.8
20260831034037 68 209 0.0 0.0 0.00 0.00 0.00 51 1013.8
20260831033537 69 243 0.0 0.0 0.00 0.00 0.00 51 1013.8
20260831033037 69 243 0.0 0.0 0.00 0.00 0.00 50 1013.6
20260831032537 69 243 0.0 0.0 0.00 0.00 0.00 50 1013.6
20260831032036 69 243 0.0 0.0 0.00 0.00 0.00 49 1013.5
20260831031538 70 242 0.0 0.0 0.00 0.00 0.00 49 1013.6
20260831031036 70 242 0.0 0.0 0.00 0.00 0.00 49 1013.5
20260831030539 70 239 0.0 0.0 0.00 0.00 0.00 48 1013.5
20260831030037 70 255 0.0 0.0 0.00 0.00 0.00 48 1013.6
20260831025536 70 243 0.0 0.0 0.00 0.00 0.00 47 1013.5
20260831025036 71 283 0.0 0.0 0.00 0.00 0.00 47 1013.4
20260831024539 71 284 0.0 0.0 0.00 0.00 0.00 46 1013.5
20260831024035 72 275 0.0 0.0 0.00 0.00 0.00 45 1013.5
20260831023535 72 267 0.0 0.0 0.00 0.00 0.00 45 1013.5
20260831023035 72 259 0.0 0.0 0.00 0.00 0.00 44 1013.5
20260831022534 73 234 0.0 0.0 0.00 0.00 0.00 43 1013.5
20260831022034 73 248 0.0 0.0 0.00 0.00 0.00 43 1013.4
20260831021538 73 244 0.0 0.0 0.00 0.00 0.00 42 1013.6
20260831021036 74 275 0.0 0.0 0.00 0.00 0.00 42 1013.5
20260831020534 74 274 0.0 0.0 0.00 0.00 0.00 41 1013.6
20260831020034 75 244 0.0 0.0 0.00 0.00 0.00 40 1013.6
20260831015533 75 225 0.0 0.0 0.00 0.00 0.00 40 1013.4
20260831015034 75 284 0.0 0.0 0.00 0.00 0.00 40 1013.6
20260831014542 76 259 0.0 0.0 0.00 0.00 0.00 39 1013.6
20260831014033 76 294 0.0 0.0 0.00 0.00 0.00 39 1013.5
20260831013532 76 209 0.0 0.0 0.00 0.00 0.00 39 1013.6
20260831013036 76 215 0.0 0.0 0.00 0.00 0.00 39 1013.6
20260831012532 76 259 0.0 0.0 0.00 0.00 0.00 39 1013.6
20260831012032 76 271 0.0 0.0 0.00 0.00 0.00 38 1013.6
20260831011535 76 284 0.0 0.0 0.00 0.00 0.00 38 1013.5
20260831011031 76 258 0.0 0.0 0.00 0.00 0.00 37 1013.6
20260831010531 77 241 0.0 0.0 0.00 0.00 0.00 38 1013.7
20260831010031 77 259 0.0 0.0 0.00 0.00 0.00 37 1013.7
20260831005530 77 253 0.0 0.0 0.00 0.00 0.00 37 1013.7
20260831005033 77 254 0.0 0.0 0.00 0.00 0.00 37 1013.7
20260831004530 77 238 0.0 0.0 0.00 0.00 0.00 37 1013.8
20260831004033 77 192 0.0 0.0 0.00 0.00 0.00 37 1013.7
20260831003530 77 304 0.0 0.0 0.00 0.00 0.00 37 1013.7
20260831003030 78 311 0.0 0.0 0.00 0.00 0.00 37 1013.8
20260831002533 78 271 0.0 0.0 0.00 0.00 0.00 37 1013.8
20260831002028 77 279 0.0 0.0 0.00 0.00 0.00 38 1013.6
20260831001527 77 286 0.0 0.0 0.00 0.00 0.00 37 1013.7
20260831001030 77 245 0.0 0.0 0.00 0.00 0.00 37 1013.8
20260831000527 76 300 0.0 0.0 0.00 0.00 0.00 38 1013.7
20260831000038 76 289 0.0 0.0 0.00 0.00 0.00 38 1013.8
20260830235527 76 272 0.0 0.0 0.00 0.00 0.00 38 1013.7
20260830235028 76 311 0.0 0.0 0.00 0.00 0.00 38 1013.9
20260830234525 76 295 0.0 0.0 0.00 0.00 0.00 38 1014.0
20260830234025 76 259 0.0 0.0 0.00 0.00 0.00 37 1014.0
20260830233530 77 302 0.0 0.0 0.00 0.00 0.00 36 1014.1
20260830233034 77 281 0.0 0.0 0.00 0.00 0.00 36 1014.1
20260830232524 77 256 0.0 0.0 0.00 0.00 0.00 36 1014.3
20260830232025 77 301 0.0 0.0 0.00 0.00 0.00 35 1014.3
20260830231530 77 302 0.0 0.0 0.00 0.00 0.00 33 1014.4
20260830231022 77 269 0.0 0.0 0.00 0.00 0.00 34 1014.3
20260830230522 76 237 0.0 0.0 0.00 0.00 0.00 34 1014.4
20260830230022 77 299 0.0 0.0 0.00 0.00 0.00 33 1014.4
20260830225521 77 321 0.0 0.0 0.00 0.00 0.00 33 1014.6
20260830225020 77 280 0.0 0.0 0.00 0.00 0.00 34 1014.7
20260830224519 77 277 0.0 0.0 0.00 0.00 0.00 35 1014.8
20260830224020 77 275 0.0 0.0 0.00 0.00 0.00 35 1014.8
20260830223519 77 311 0.0 0.0 0.00 0.00 0.00 35 1014.9
20260830223017 77 294 0.0 0.0 0.00 0.00 0.00 34 1015.0
20260830222515 77 307 0.0 0.0 0.00 0.00 0.00 34 1015.1
20260830222019 77 255 0.0 0.0 0.00 0.00 0.00 35 1015.1
20260830221514 76 284 0.0 0.0 0.00 0.00 0.00 36 1015.2
20260830221013 76 269 0.0 0.0 0.00 0.00 0.00 36 1015.3
20260830220512 76 296 0.0 0.0 0.00 0.00 0.00 37 1015.5
20260830220013 75 271 0.0 0.0 0.00 0.00 0.00 37 1015.5
20260830215509 75 294 0.0 0.0 0.00 0.00 0.00 38 1015.5
20260830215013 75 227 0.0 0.0 0.00 0.00 0.00 36 1015.6
20260830214509 75 12 0.0 0.0 0.00 0.00 0.00 37 1015.6
20260830214007 74 350 0.0 0.0 0.00 0.00 0.00 37 1015.7
20260830213506 74 266 0.0 0.0 0.00 0.00 0.00 38 1015.7
20260830213005 74 292 0.0 0.0 0.00 0.00 0.00 39 1015.7
20260830212505 74 263 0.0 0.0 0.00 0.00 0.00 38 1015.8
20260830212005 74 344 0.0 0.0 0.00 0.00 0.00 38 1015.8
20260830211510 74 296 0.0 0.0 0.00 0.00 0.00 38 1015.9
20260830211003 73 301 0.0 0.0 0.00 0.00 0.00 39 1016.0
20260830210502 73 279 0.0 0.0 0.00 0.00 0.00 40 1015.9
20260830210001 73 287 0.0 0.0 0.00 0.00 0.00 40 1015.9
20260830205600 72 267 0.0 0.0 0.00 0.00 0.00 41 1015.9
20260830205101 72 281 0.0 0.0 0.00 0.00 0.00 41 1015.9
20260830204558 72 299 0.0 0.0 0.00 0.00 0.00 41 1016.1
20260830204058 72 290 0.0 0.0 0.00 0.00 0.00 41 1016.1
20260830203556 71 347 0.0 0.0 0.00 0.00 0.00 42 1016.3
20260830203055 71 256 0.0 0.0 0.00 0.00 0.00 42 1016.2
20260830202554 71 306 0.0 0.0 0.00 0.00 0.00 42 1016.4
20260830202053 71 285 0.0 0.0 0.00 0.00 0.00 43 1016.3
20260830201553 71 295 0.0 0.0 0.00 0.00 0.00 43 1016.4
20260830201052 71 256 0.0 0.0 0.00 0.00 0.00 43 1016.6
20260830200554 70 288 0.0 0.0 0.00 0.00 0.00 44 1016.6
20260830200050 70 282 0.0 0.0 0.00 0.00 0.00 45 1016.6
20260830195552 70 290 0.0 0.0 0.00 0.00 0.00 45 1016.7
20260830195051 69 290 0.0 0.0 0.00 0.00 0.00 45 1016.7
20260830194547 69 279 0.0 0.0 0.00 0.00 0.00 45 1016.8
20260830194051 69 280 0.0 0.0 0.00 0.00 0.00 46 1016.8
20260830193543 68 314 0.0 0.0 0.00 0.00 0.00 46 1016.8
20260830193043 68 292 0.0 0.0 0.00 0.00 0.00 47 1016.8
20260830192541 68 296 0.0 0.0 0.00 0.00 0.00 49 1016.8
20260830192041 67 292 0.0 0.0 0.00 0.00 0.00 49 1016.9
20260830191540 67 271 0.0 0.0 0.00 0.00 0.00 48 1016.9
20260830191040 67 306 0.0 0.0 0.00 0.00 0.00 49 1016.9
20260830190539 67 282 0.0 0.0 0.00 0.00 0.00 49 1017.1
20260830190038 66 282 0.0 0.0 0.00 0.00 0.00 50 1017.1
20260830185537 66 304 0.0 0.0 0.00 0.00 0.00 51 1017.2
20260830185036 66 355 0.0 0.0 0.00 0.00 0.00 51 1017.2
20260830184535 65 302 0.0 0.0 0.00 0.00 0.00 52 1017.3
20260830184033 65 299 0.0 0.0 0.00 0.00 0.00 51 1017.3
20260830183534 65 300 0.0 0.0 0.00 0.00 0.00 54 1017.4
20260830183032 65 307 0.0 0.0 0.00 0.00 0.00 52 1017.4
20260830182534 65 313 0.0 0.0 0.00 0.00 0.00 54 1017.4
20260830182031 64 296 0.0 0.0 0.00 0.00 0.00 54 1017.6
20260830181530 64 290 0.0 0.0 0.00 0.00 0.00 54 1017.6
20260830181030 64 311 0.0 0.0 0.00 0.00 0.00 55 1017.6
20260830180532 64 298 0.0 0.0 0.00 0.00 0.00 55 1017.6
20260830180028 64 290 0.0 0.0 0.00 0.00 0.00 56 1017.6
20260830175528 64 310 0.0 0.0 0.00 0.00 0.00 56 1017.6
20260830175027 63 288 0.0 0.0 0.00 0.00 0.00 56 1017.6
20260830174525 63 263 0.0 0.0 0.00 0.00 0.00 57 1017.6
20260830174024 63 298 0.0 0.0 0.00 0.00 0.00 58 1017.6
20260830173525 62 250 0.0 0.0 0.00 0.00 0.00 58 1017.6
20260830173022 62 303 0.0 0.0 0.00 0.00 0.00 59 1017.6
20260830172522 62 290 0.0 0.0 0.00 0.00 0.00 60 1017.6
20260830172021 61 274 0.0 0.0 0.00 0.00 0.00 62 1017.7
20260830171519 61 287 0.0 0.0 0.00 0.00 0.00 63 1017.6
20260830171018 60 296 0.0 0.0 0.00 0.00 0.00 64 1017.7
20260830170522 60 280 0.0 0.0 0.00 0.00 0.00 65 1017.7
20260830170015 60 291 0.0 0.0 0.00 0.00 0.00 65 1017.8
20260830165514 59 287 0.0 0.0 0.00 0.00 0.00 66 1017.8
20260830165014 59 261 0.0 0.0 0.00 0.00 0.00 67 1018.0
20260830164525 59 324 0.0 0.0 0.00 0.00 0.00 67 1018.0
20260830164012 59 302 0.0 0.0 0.00 0.00 0.00 68 1018.1
20260830163511 59 279 0.0 0.0 0.00 0.00 0.00 68 1018.1
20260830163010 59 300 0.0 0.0 0.00 0.00 0.00 68 1018.2
20260830162511 58 225 0.0 0.0 0.00 0.00 0.00 69 1018.2
20260830162011 58 262 0.0 0.0 0.00 0.00 0.00 69 1018.3
20260830161509 58 292 0.0 0.0 0.00 0.00 0.00 69 1018.3
20260830161009 58 280 0.0 0.0 0.00 0.00 0.00 70 1018.3
20260830160509 58 309 0.0 0.0 0.00 0.00 0.00 70 1018.2
20260830160012 57 277 0.0 0.0 0.00 0.00 0.00 71 1018.4
20260830155509 57 281 0.0 0.0 0.00 0.00 0.00 72 1018.4
20260830155009 57 304 0.0 0.0 0.00 0.00 0.00 72 1018.5
20260830154508 56 251 0.0 0.0 0.00 0.00 0.00 72 1018.5
20260830154008 56 254 0.0 0.0 0.00 0.00 0.00 72 1018.5
20260830153507 56 248 0.0 0.0 0.00 0.00 0.00 72 1018.6
20260830153008 56 281 0.0 0.0 0.00 0.00 0.00 71 1018.6
20260830152507 55 236 0.0 0.0 0.00 0.00 0.00 71 1018.6
20260830152007 55 260 0.0 0.0 0.00 0.00 0.00 70 1018.6
20260830151507 55 248 0.0 0.0 0.00 0.00 0.00 70 1018.7
20260830151007 55 290 0.0 0.0 0.00 0.00 0.00 69 1018.6
20260830150508 54 283 0.0 0.0 0.00 0.00 0.00 68 1018.5
20260830150007 54 223 0.0 0.0 0.00 0.00 0.00 68 1018.5
20260830145507 54 259 0.0 0.0 0.00 0.00 0.00 68 1018.6
20260830145009 54 261 0.0 0.0 0.00 0.00 0.00 68 1018.7
20260830144506 54 233 0.0 0.0 0.00 0.00 0.00 67 1018.7
20260830144005 54 238 0.0 0.0 0.00 0.00 0.00 66 1018.7
20260830143507 53 250 0.0 0.0 0.00 0.00 0.00 66 1018.7
20260830143005 53 249 0.0 0.0 0.00 0.00 0.00 66 1018.6
20260830142505 53 213 0.0 0.0 0.00 0.00 0.00 65 1018.6
20260830142005 53 250 0.0 0.0 0.00 0.00 0.00 65 1018.5
20260830141504 53 239 0.0 0.0 0.00 0.00 0.00 65 1018.6
20260830141003 53 281 0.0 0.0 0.00 0.00 0.00 65 1018.4
20260830140504 53 281 0.0 0.0 0.00 0.00 0.00 65 1018.4
20260830140003 53 281 0.0 0.0 0.00 0.00 0.00 64 1018.4
20260830135502 53 288 0.0 0.0 0.00 0.00 0.00 64 1018.3
20260830135002 53 280 0.0 0.0 0.00 0.00 0.00 65 1018.3
20260830134502 53 280 0.0 0.0 0.00 0.00 0.00 65 1018.2
20260830134002 53 267 0.0 0.0 0.00 0.00 0.00 66 1018.2
20260830133502 53 267 0.0 0.0 0.00 0.00 0.00 67 1018.1
20260830133002 53 259 0.0 0.0 0.00 0.00 0.00 67 1018.1
20260830132600 53 263 0.0 0.0 0.00 0.00 0.00 68 1018.2
20260830132059 53 234 0.0 0.0 0.00 0.00 0.00 69 1018.0
20260830131559 53 234 0.0 0.0 0.00 0.00 0.00 68 1018.0
20260830131059 53 280 0.0 0.0 0.00 0.00 0.00 67 1017.8
20260830130559 53 280 0.0 0.0 0.00 0.00 0.00 66 1017.8
20260830130107 53 277 0.0 0.0 0.00 0.00 0.00 65 1017.7
20260830125559 52 242 0.0 0.0 0.00 0.00 0.00 65 1017.7
20260830125057 52 248 0.0 0.0 0.00 0.00 0.00 64 1017.7
20260830124558 52 281 0.0 0.0 0.00 0.00 0.00 63 1017.6
20260830124058 52 275 0.0 0.0 0.00 0.00 0.00 62 1017.6
20260830123558 52 271 0.0 0.0 0.00 0.00 0.00 62 1017.6
20260830123124 52 252 0.0 0.0 0.00 0.00 0.00 63 1017.6
20260830122557 52 252 0.0 0.0 0.00 0.00 0.00 64 1017.7
20260830122100 52 256 0.0 0.0 0.00 0.00 0.00 66 1017.7
20260830121602 52 278 0.0 0.0 0.00 0.00 0.00 67 1017.7
20260830121059 52 278 0.0 0.0 0.00 0.00 0.00 65 1017.6
20260830120556 52 278 0.0 0.0 0.00 0.00 0.00 65 1017.6
20260830120058 51 278 0.0 0.0 0.00 0.00 0.00 66 1017.7
20260830115556 51 233 0.0 0.0 0.00 0.00 0.00 69 1017.7
20260830115057 51 233 0.0 0.0 0.00 0.00 0.00 70 1017.6
20260830114607 51 232 0.0 0.0 0.00 0.00 0.00 72 1017.8
20260830114054 51 232 0.0 0.0 0.00 0.00 0.00 72 1017.7
20260830113552 52 230 0.0 0.0 0.00 0.00 0.00 72 1017.6
20260830113052 52 230 0.0 0.0 0.00 0.00 0.00 73 1017.5
20260830112551 52 230 0.0 0.0 0.00 0.00 0.00 73 1017.6
20260830112051 52 230 0.0 0.0 0.00 0.00 0.00 72 1017.5
20260830111549 53 230 0.0 0.0 0.00 0.00 0.00 72 1017.6
20260830111051 53 229 0.0 0.0 0.00 0.00 0.00 72 1017.6
20260830110548 53 227 0.0 0.0 0.00 0.00 0.00 72 1017.5
20260830110047 53 227 0.0 0.0 0.00 0.00 0.00 72 1017.5
20260830105546 54 277 0.0 0.0 0.00 0.00 0.00 72 1017.6
20260830105045 54 277 0.0 0.0 0.00 0.00 0.00 72 1017.6
20260830104550 54 277 0.0 0.0 0.00 0.00 0.00 72 1017.6
20260830104043 54 277 0.0 0.0 0.00 0.00 0.00 72 1017.5
20260830103543 54 277 0.0 0.0 0.00 0.00 0.00 72 1017.6
20260830103043 55 277 0.0 0.0 0.00 0.00 0.00 72 1017.6
20260830102542 55 277 0.0 0.0 0.00 0.00 0.00 72 1017.6
20260830102041 55 275 0.0 0.0 0.00 0.00 0.00 72 1017.6
20260830101543 55 275 0.0 0.0 0.00 0.00 0.00 72 1017.7
20260830101041 55 275 0.0 0.0 0.00 0.00 0.00 72 1017.6
20260830100541 55 259 0.0 0.0 0.00 0.00 0.00 72 1017.7
20260830100041 55 258 0.0 0.0 0.00 0.00 0.00 72 1017.6
20260830095541 55 267 0.0 0.0 0.00 0.00 0.00 71 1017.6
20260830095042 55 261 0.0 0.0 0.00 0.00 0.00 71 1017.6
20260830094541 55 259 0.0 0.0 0.00 0.00 0.00 71 1017.6
20260830094040 55 274 0.0 0.0 0.00 0.00 0.00 71 1017.6
20260830093539 55 271 0.0 0.0 0.00 0.00 0.00 70 1017.5
20260830093039 55 279 0.0 0.0 0.00 0.00 0.00 69 1017.4
20260830092539 55 281 0.0 0.0 0.00 0.00 0.00 69 1017.4
20260830092039 55 286 0.0 0.0 0.00 0.00 0.00 69 1017.4
20260830091539 55 259 0.0 0.0 0.00 0.00 0.00 69 1017.4
20260830091038 55 251 0.0 0.0 0.00 0.00 0.00 69 1017.5
20260830090537 55 250 0.0 0.0 0.00 0.00 0.00 69 1017.5
20260830090036 56 250 0.0 0.0 0.00 0.00 0.00 68 1017.4
20260830085536 56 250 0.0 0.0 0.00 0.00 0.00 68 1017.4
20260830085035 56 250 0.0 0.0 0.00 0.00 0.00 68 1017.4
20260830084533 57 250 0.0 0.0 0.00 0.00 0.00 68 1017.4
20260830084032 57 250 0.0 0.0 0.00 0.00 0.00 68 1017.5
20260830083532 57 249 0.0 0.0 0.00 0.00 0.00 68 1017.5
20260830083033 57 249 0.0 0.0 0.00 0.00 0.00 69 1017.4
20260830082533 57 275 0.0 0.0 0.00 0.00 0.00 69 1017.5
20260830082030 57 266 0.0 0.0 0.00 0.00 0.00 69 1017.5
20260830081544 57 294 0.0 0.0 0.00 0.00 0.00 69 1017.5
20260830081030 57 246 0.0 0.0 0.00 0.00 0.00 69 1017.5
20260830080530 57 275 0.0 0.0 0.00 0.00 0.00 69 1017.5
20260830080030 57 282 0.0 0.0 0.00 0.00 0.00 68 1017.5
20260830075529 57 285 0.0 0.0 0.00 0.00 0.00 68 1017.5
20260830075029 58 297 0.0 0.0 0.00 0.00 0.00 68 1017.6
20260830074529 58 297 0.0 0.0 0.00 0.00 0.00 68 1017.4
20260830074029 58 281 0.0 0.0 0.00 0.00 0.00 67 1017.6
20260830073527 58 281 0.0 0.0 0.00 0.00 0.00 67 1017.6
20260830073028 58 257 0.0 0.0 0.00 0.00 0.00 66 1017.6
20260830072526 58 272 0.0 0.0 0.00 0.00 0.00 66 1017.4
20260830072026 58 270 0.0 0.0 0.00 0.00 0.00 66 1017.4
20260830071525 58 281 0.0 0.0 0.00 0.00 0.00 65 1017.5
20260830071025 59 262 0.0 0.0 0.00 0.00 0.00 65 1017.4
20260830070523 59 267 0.0 0.0 0.00 0.00 0.00 64 1017.4
20260830070028 59 257 0.0 0.0 0.00 0.00 0.00 64 1017.5
20260830065522 59 258 0.0 0.0 0.00 0.00 0.00 63 1017.5
20260830065024 59 252 0.0 0.0 0.00 0.00 0.00 63 1017.5
20260830064522 59 253 0.0 0.0 0.00 0.00 0.00 63 1017.4
20260830064025 59 277 0.0 0.0 0.00 0.00 0.00 63 1017.4
20260830063521 59 289 0.0 0.0 0.00 0.00 0.00 63 1017.5
20260830063031 59 276 0.0 0.0 0.00 0.00 0.00 63 1017.3
20260830062521 59 289 0.0 0.0 0.00 0.00 0.00 63 1017.4
20260830062024 59 292 0.0 0.0 0.00 0.00 0.00 63 1017.4
20260830061522 59 248 0.0 0.0 0.00 0.00 0.00 63 1017.4
20260830061020 60 238 0.0 0.0 0.00 0.00 0.00 63 1017.3
20260830060524 60 215 0.0 0.0 0.00 0.00 0.00 63 1017.5
20260830060022 60 245 0.0 0.0 0.00 0.00 0.00 62 1017.5
20260830055520 60 254 0.0 0.0 0.00 0.00 0.00 61 1017.4
20260830055020 60 214 0.0 0.0 0.00 0.00 0.00 61 1017.5
20260830054529 60 214 0.0 0.0 0.00 0.00 0.00 61 1017.6
20260830054020 61 211 0.0 0.0 0.00 0.00 0.00 60 1017.6
20260830053519 61 257 0.0 0.0 0.00 0.00 0.00 60 1017.6
20260830053120 61 257 0.0 0.0 0.00 0.00 0.00 60 1017.6
20260830052518 61 247 0.0 0.0 0.00 0.00 0.00 60 1017.5
20260830052019 61 252 0.0 0.0 0.00 0.00 0.00 59 1017.6